����������;��������(kWh)
2015-10-26 00:00;67,35
2015-10-26 00:15;67,5
2015-10-26 00:30;68,55
2015-10-26 00:45;66,6
2015-10-26 01:00;66,15
2015-10-26 01:15;65,6
2015-10-26 01:30;65,7
2015-10-26 01:45;64,95
2015-10-26 02:00;65,35
2015-10-26 02:15;65,1
2015-10-26 02:30;69,75
2015-10-26 02:45;70,85
2015-10-26 03:00;71,65
2015-10-26 03:15;72,55
2015-10-26 03:30;66
2015-10-26 03:45;66,1
2015-10-26 04:00;65,05
2015-10-26 04:15;65,5
2015-10-26 04:30;64,65
2015-10-26 04:45;65,3
2015-10-26 05:00;65,35
2015-10-26 05:15;65,6
2015-10-26 05:30;64,65
2015-10-26 05:45;67,05
2015-10-26 06:00;69,7
2015-10-26 06:15;72
2015-10-26 06:30;75,45
2015-10-26 06:45;75,45
2015-10-26 07:00;72,75
2015-10-26 07:15;73,6
2015-10-26 07:30;73,45
2015-10-26 07:45;78,6
2015-10-26 08:00;84,4
2015-10-26 08:15;87,4
2015-10-26 08:30;90,6
2015-10-26 08:45;93,8
2015-10-26 09:00;98,55
2015-10-26 09:15;101
2015-10-26 09:30;109,55
2015-10-26 09:45;110,5
2015-10-26 10:00;121,3
2015-10-26 10:15;119,4
2015-10-26 10:30;118,2
2015-10-26 10:45;114,95
2015-10-26 11:00;118,15
2015-10-26 11:15;120,2
2015-10-26 11:30;123,7
2015-10-26 11:45;127,45
2015-10-26 12:00;123,95
2015-10-26 12:15;128,4
2015-10-26 12:30;127,35
2015-10-26 12:45;126,2
2015-10-26 13:00;129,25
2015-10-26 13:15;130,05
2015-10-26 13:30;126,75
2015-10-26 13:45;132,6
2015-10-26 14:00;133,15
2015-10-26 14:15;131,35
2015-10-26 14:30;131
2015-10-26 14:45;130,25
2015-10-26 15:00;127,55
2015-10-26 15:15;126,55
2015-10-26 15:30;126,15
2015-10-26 15:45;124,5
2015-10-26 16:00;120,95
2015-10-26 16:15;116,05
2015-10-26 16:30;111,25
2015-10-26 16:45;111,75
2015-10-26 17:00;113,25
2015-10-26 17:15;117,45
2015-10-26 17:30;116,25
2015-10-26 17:45;114,25
2015-10-26 18:00;112,65
2015-10-26 18:15;113,3
2015-10-26 18:30;113,15
2015-10-26 18:45;108,3
2015-10-26 19:00;108,85
2015-10-26 19:15;108
2015-10-26 19:30;107,35
2015-10-26 19:45;99,65
2015-10-26 20:00;103,15
2015-10-26 20:15;102,9
2015-10-26 20:30;100,25
2015-10-26 20:45;101,9
2015-10-26 21:00;95,1
2015-10-26 21:15;96,25
2015-10-26 21:30;90,9
2015-10-26 21:45;88,1
2015-10-26 22:00;83,05
2015-10-26 22:15;81
2015-10-26 22:30;79,2
2015-10-26 22:45;76,45
2015-10-26 23:00;75,85
2015-10-26 23:15;72,95
2015-10-26 23:30;73,95
2015-10-26 23:45;71,45
2015-10-27 00:00;70,3
2015-10-27 00:15;71,05
2015-10-27 00:30;71,2
2015-10-27 00:45;69,4
2015-10-27 01:00;70,5
2015-10-27 01:15;70,3
2015-10-27 01:30;70,95
2015-10-27 01:45;70,05
2015-10-27 02:00;68,95
2015-10-27 02:15;70,3
2015-10-27 02:30;69
2015-10-27 02:45;69,65
2015-10-27 03:00;70
2015-10-27 03:15;70,4
2015-10-27 03:30;68,9
2015-10-27 03:45;67,85
2015-10-27 04:00;67,75
2015-10-27 04:15;67,75
2015-10-27 04:30;66,9
2015-10-27 04:45;67,35
2015-10-27 05:00;67,15
2015-10-27 05:15;68,1
2015-10-27 05:30;68,5
2015-10-27 05:45;67,1
2015-10-27 06:00;72,4
2015-10-27 06:15;71,4
2015-10-27 06:30;75,2
2015-10-27 06:45;75,2
2015-10-27 07:00;74,7
2015-10-27 07:15;81
2015-10-27 07:30;82,55
2015-10-27 07:45;90,05
2015-10-27 08:00;91,65
2015-10-27 08:15;87,75
2015-10-27 08:30;83,4
2015-10-27 08:45;88,8
2015-10-27 09:00;96,25
2015-10-27 09:15;102,75
2015-10-27 09:30;110
2015-10-27 09:45;114
2015-10-27 10:00;122
2015-10-27 10:15;126
2015-10-27 10:30;123,75
2015-10-27 10:45;123,3
2015-10-27 11:00;133,85
2015-10-27 11:15;133,65
2015-10-27 11:30;136,5
2015-10-27 11:45;136,45
2015-10-27 12:00;138,45
2015-10-27 12:15;135,85
2015-10-27 12:30;143,8
2015-10-27 12:45;141,75
2015-10-27 13:00;139,55
2015-10-27 13:15;140,8
2015-10-27 13:30;145,8
2015-10-27 13:45;145,95
2015-10-27 14:00;148,85
2015-10-27 14:15;147,85
2015-10-27 14:30;147,75
2015-10-27 14:45;146,8
2015-10-27 15:00;139,25
2015-10-27 15:15;131,45
2015-10-27 15:30;130,1
2015-10-27 15:45;123,8
2015-10-27 16:00;124,2
2015-10-27 16:15;121,8
2015-10-27 16:30;115,7
2015-10-27 16:45;115,2
2015-10-27 17:00;109,15
2015-10-27 17:15;109,5
2015-10-27 17:30;107,65
2015-10-27 17:45;108,2
2015-10-27 18:00;107,3
2015-10-27 18:15;105,15
2015-10-27 18:30;104,25
2015-10-27 18:45;105,7
2015-10-27 19:00;103,35
2015-10-27 19:15;101,15
2015-10-27 19:30;102,45
2015-10-27 19:45;101,35
2015-10-27 20:00;98,7
2015-10-27 20:15;95,8
2015-10-27 20:30;92,8
2015-10-27 20:45;92,55
2015-10-27 21:00;95,5
2015-10-27 21:15;97,8
2015-10-27 21:30;96,1
2015-10-27 21:45;96,15
2015-10-27 22:00;90,9
2015-10-27 22:15;86,6
2015-10-27 22:30;78,45
2015-10-27 22:45;75,45
2015-10-27 23:00;73,9
2015-10-27 23:15;74,7
2015-10-27 23:30;72,25
2015-10-27 23:45;71,45
2015-10-28 00:00;71,15
2015-10-28 00:15;70,9
2015-10-28 00:30;69,45
2015-10-28 00:45;70
2015-10-28 01:00;69,75
2015-10-28 01:15;71,05
2015-10-28 01:30;69,8
2015-10-28 01:45;69
2015-10-28 02:00;69,15
2015-10-28 02:15;69,55
2015-10-28 02:30;68,05
2015-10-28 02:45;69
2015-10-28 03:00;68,25
2015-10-28 03:15;69,3
2015-10-28 03:30;68,25
2015-10-28 03:45;66,55
2015-10-28 04:00;66,8
2015-10-28 04:15;67,2
2015-10-28 04:30;66,35
2015-10-28 04:45;65,95
2015-10-28 05:00;67,05
2015-10-28 05:15;69,8
2015-10-28 05:30;73,5
2015-10-28 05:45;73,3
2015-10-28 06:00;74,15
2015-10-28 06:15;75,65
2015-10-28 06:30;71,05
2015-10-28 06:45;73
2015-10-28 07:00;71,25
2015-10-28 07:15;71,25
2015-10-28 07:30;71,4
2015-10-28 07:45;73,5
2015-10-28 08:00;75,95
2015-10-28 08:15;78,65
2015-10-28 08:30;74,85
2015-10-28 08:45;74,1
2015-10-28 09:00;73,05
2015-10-28 09:15;72,5
2015-10-28 09:30;71,35
2015-10-28 09:45;72,25
2015-10-28 10:00;72,55
2015-10-28 10:15;72,75
2015-10-28 10:30;76,3
2015-10-28 10:45;78,15
2015-10-28 11:00;78,05
2015-10-28 11:15;77,55
2015-10-28 11:30;83,05
2015-10-28 11:45;84,25
2015-10-28 12:00;88,6
2015-10-28 12:15;89,45
2015-10-28 12:30;82,2
2015-10-28 12:45;78,6
2015-10-28 13:00;78,7
2015-10-28 13:15;75,9
2015-10-28 13:30;76,3
2015-10-28 13:45;78,3
2015-10-28 14:00;78,9
2015-10-28 14:15;79,85
2015-10-28 14:30;81,7
2015-10-28 14:45;77,35
2015-10-28 15:00;81
2015-10-28 15:15;76,7
2015-10-28 15:30;77,55
2015-10-28 15:45;79,25
2015-10-28 16:00;78,4
2015-10-28 16:15;78,05
2015-10-28 16:30;76,85
2015-10-28 16:45;82,8
2015-10-28 17:00;80,75
2015-10-28 17:15;76,3
2015-10-28 17:30;72,4
2015-10-28 17:45;78,6
2015-10-28 18:00;79,9
2015-10-28 18:15;80,05
2015-10-28 18:30;78,2
2015-10-28 18:45;79,1
2015-10-28 19:00;78,75
2015-10-28 19:15;79,35
2015-10-28 19:30;80,6
2015-10-28 19:45;82,4
2015-10-28 20:00;85,45
2015-10-28 20:15;81,65
2015-10-28 20:30;82,1
2015-10-28 20:45;83,8
2015-10-28 21:00;77,75
2015-10-28 21:15;77,8
2015-10-28 21:30;80,65
2015-10-28 21:45;85,15
2015-10-28 22:00;80,1
2015-10-28 22:15;80,05
2015-10-28 22:30;81,25
2015-10-28 22:45;82,05
2015-10-28 23:00;79,2
2015-10-28 23:15;72,4
2015-10-28 23:30;70,35
2015-10-28 23:45;71,35
2015-10-29 00:00;69,6
2015-10-29 00:15;70,25
2015-10-29 00:30;70,35
2015-10-29 00:45;69,9
2015-10-29 01:00;70,4
2015-10-29 01:15;69,2
2015-10-29 01:30;68,9
2015-10-29 01:45;71,25
2015-10-29 02:00;69,25
2015-10-29 02:15;67,9
2015-10-29 02:30;69,05
2015-10-29 02:45;69,7
2015-10-29 03:00;68,6
2015-10-29 03:15;67,45
2015-10-29 03:30;69,2
2015-10-29 03:45;67,3
2015-10-29 04:00;66,95
2015-10-29 04:15;67,45
2015-10-29 04:30;67,2
2015-10-29 04:45;66,35
2015-10-29 05:00;66,55
2015-10-29 05:15;67,3
2015-10-29 05:30;67,2
2015-10-29 05:45;68,25
2015-10-29 06:00;72,65
2015-10-29 06:15;73,9
2015-10-29 06:30;76,7
2015-10-29 06:45;78,3
2015-10-29 07:00;73,85
2015-10-29 07:15;72,9
2015-10-29 07:30;75,35
2015-10-29 07:45;82,95
2015-10-29 08:00;83,9
2015-10-29 08:15;86,15
2015-10-29 08:30;90,7
2015-10-29 08:45;91,7
2015-10-29 09:00;99,6
2015-10-29 09:15;108,9
2015-10-29 09:30;116,8
2015-10-29 09:45;120,9
2015-10-29 10:00;123,7
2015-10-29 10:15;127
2015-10-29 10:30;133,05
2015-10-29 10:45;132,25
2015-10-29 11:00;132,55
2015-10-29 11:15;136,65
2015-10-29 11:30;136,65
2015-10-29 11:45;134,75
2015-10-29 12:00;134,85
2015-10-29 12:15;139,15
2015-10-29 12:30;138,65
2015-10-29 12:45;141,05
2015-10-29 13:00;141,3
2015-10-29 13:15;139,8
2015-10-29 13:30;142,55
2015-10-29 13:45;144
2015-10-29 14:00;144,55
2015-10-29 14:15;142,45
2015-10-29 14:30;138,1
2015-10-29 14:45;137,45
2015-10-29 15:00;134,9
2015-10-29 15:15;134
2015-10-29 15:30;134,05
2015-10-29 15:45;129,9
2015-10-29 16:00;120,5
2015-10-29 16:15;118,35
2015-10-29 16:30;115,9
2015-10-29 16:45;115,9
2015-10-29 17:00;111,45
2015-10-29 17:15;117,3
2015-10-29 17:30;116,2
2015-10-29 17:45;116,8
2015-10-29 18:00;117,45
2015-10-29 18:15;115
2015-10-29 18:30;115
2015-10-29 18:45;117
2015-10-29 19:00;114,35
2015-10-29 19:15;118,05
2015-10-29 19:30;112,75
2015-10-29 19:45;110,6
2015-10-29 20:00;99,75
2015-10-29 20:15;99,2
2015-10-29 20:30;93,3
2015-10-29 20:45;90,5
2015-10-29 21:00;88,9
2015-10-29 21:15;87,75
2015-10-29 21:30;90,7
2015-10-29 21:45;89,65
2015-10-29 22:00;85,85
2015-10-29 22:15;79,45
2015-10-29 22:30;78,95
2015-10-29 22:45;76,7
2015-10-29 23:00;74,05
2015-10-29 23:15;73,5
2015-10-29 23:30;73,8
2015-10-29 23:45;75,7
2015-10-30 00:00;78,1
2015-10-30 00:15;77,35
2015-10-30 00:30;78,35
2015-10-30 00:45;77,2
2015-10-30 01:00;75,4
2015-10-30 01:15;70,2
2015-10-30 01:30;69,45
2015-10-30 01:45;69,5
2015-10-30 02:00;69,15
2015-10-30 02:15;69,2
2015-10-30 02:30;68,5
2015-10-30 02:45;69,4
2015-10-30 03:00;68,3
2015-10-30 03:15;68,9
2015-10-30 03:30;68
2015-10-30 03:45;68,4
2015-10-30 04:00;68,45
2015-10-30 04:15;66,7
2015-10-30 04:30;66,95
2015-10-30 04:45;67,65
2015-10-30 05:00;67,05
2015-10-30 05:15;67,45
2015-10-30 05:30;67,8
2015-10-30 05:45;67,05
2015-10-30 06:00;71,3
2015-10-30 06:15;69,4
2015-10-30 06:30;74,3
2015-10-30 06:45;76,5
2015-10-30 07:00;74,5
2015-10-30 07:15;73,9
2015-10-30 07:30;74,4
2015-10-30 07:45;80,4
2015-10-30 08:00;84,9
2015-10-30 08:15;86,55
2015-10-30 08:30;91,75
2015-10-30 08:45;95,6
2015-10-30 09:00;101,7
2015-10-30 09:15;107,65
2015-10-30 09:30;120,3
2015-10-30 09:45;128,25
2015-10-30 10:00;132,2
2015-10-30 10:15;130,45
2015-10-30 10:30;128,7
2015-10-30 10:45;132,2
2015-10-30 11:00;134,6
2015-10-30 11:15;137,35
2015-10-30 11:30;136,2
2015-10-30 11:45;132,2
2015-10-30 12:00;134,4
2015-10-30 12:15;133,75
2015-10-30 12:30;135,9
2015-10-30 12:45;138,95
2015-10-30 13:00;139,6
2015-10-30 13:15;139,65
2015-10-30 13:30;139,6
2015-10-30 13:45;142,8
2015-10-30 14:00;141,95
2015-10-30 14:15;144,9
2015-10-30 14:30;141,65
2015-10-30 14:45;134,55
2015-10-30 15:00;140,6
2015-10-30 15:15;136,8
2015-10-30 15:30;131,05
2015-10-30 15:45;129,75
2015-10-30 16:00;114,7
2015-10-30 16:15;116,4
2015-10-30 16:30;111,9
2015-10-30 16:45;115,45
2015-10-30 17:00;109,55
2015-10-30 17:15;106
2015-10-30 17:30;112,95
2015-10-30 17:45;110,75
2015-10-30 18:00;108,7
2015-10-30 18:15;107,6
2015-10-30 18:30;104,9
2015-10-30 18:45;103
2015-10-30 19:00;102,6
2015-10-30 19:15;101,05
2015-10-30 19:30;102,2
2015-10-30 19:45;98,1
2015-10-30 20:00;104,55
2015-10-30 20:15;104,85
2015-10-30 20:30;102,6
2015-10-30 20:45;99,55
2015-10-30 21:00;101,5
2015-10-30 21:15;89,45
2015-10-30 21:30;90,85
2015-10-30 21:45;88,8
2015-10-30 22:00;83,5
2015-10-30 22:15;80,55
2015-10-30 22:30;78,45
2015-10-30 22:45;74,4
2015-10-30 23:00;73,3
2015-10-30 23:15;72,1
2015-10-30 23:30;69,75
2015-10-30 23:45;71
2015-10-31 00:00;70,35
2015-10-31 00:15;69,2
2015-10-31 00:30;68
2015-10-31 00:45;67,3
2015-10-31 01:00;67,4
2015-10-31 01:15;68,45
2015-10-31 01:30;67,55
2015-10-31 01:45;67,45
2015-10-31 02:00;67,5
2015-10-31 02:15;69,6
2015-10-31 02:30;73,95
2015-10-31 02:45;73,45
2015-10-31 03:00;73,35
2015-10-31 03:15;72,35
2015-10-31 03:30;65,6
2015-10-31 03:45;66,1
2015-10-31 04:00;65,55
2015-10-31 04:15;65,8
2015-10-31 04:30;65,45
2015-10-31 04:45;65,75
2015-10-31 05:00;64,9
2015-10-31 05:15;65,65
2015-10-31 05:30;67,35
2015-10-31 05:45;68,55
2015-10-31 06:00;72,2
2015-10-31 06:15;71,85
2015-10-31 06:30;70,75
2015-10-31 06:45;69,45
2015-10-31 07:00;65,5
2015-10-31 07:15;65,55
2015-10-31 07:30;65,85
2015-10-31 07:45;63,05
2015-10-31 08:00;63,05
2015-10-31 08:15;65
2015-10-31 08:30;66,2
2015-10-31 08:45;64,6
2015-10-31 09:00;64,8
2015-10-31 09:15;64,2
2015-10-31 09:30;65,1
2015-10-31 09:45;86,45
2015-10-31 10:00;69,1
2015-10-31 10:15;73,45
2015-10-31 10:30;74,05
2015-10-31 10:45;76,85
2015-10-31 11:00;76,9
2015-10-31 11:15;76,1
2015-10-31 11:30;77,4
2015-10-31 11:45;80,1
2015-10-31 12:00;77,5
2015-10-31 12:15;77,65
2015-10-31 12:30;76,35
2015-10-31 12:45;78
2015-10-31 13:00;79
2015-10-31 13:15;82,05
2015-10-31 13:30;82,05
2015-10-31 13:45;83,9
2015-10-31 14:00;87,3
2015-10-31 14:15;82,1
2015-10-31 14:30;83,9
2015-10-31 14:45;75,3
2015-10-31 15:00;77,6
2015-10-31 15:15;76,5
2015-10-31 15:30;77,4
2015-10-31 15:45;80,6
2015-10-31 16:00;77,6
2015-10-31 16:15;75,35
2015-10-31 16:30;74,95
2015-10-31 16:45;81,95
2015-10-31 17:00;85,4
2015-10-31 17:15;80,1
2015-10-31 17:30;81,5
2015-10-31 17:45;83,55
2015-10-31 18:00;88,1
2015-10-31 18:15;87,6
2015-10-31 18:30;92,6
2015-10-31 18:45;92,95
2015-10-31 19:00;90,45
2015-10-31 19:15;90,95
2015-10-31 19:30;87,65
2015-10-31 19:45;87,45
2015-10-31 20:00;81,25
2015-10-31 20:15;83,45
2015-10-31 20:30;79,4
2015-10-31 20:45;81,85
2015-10-31 21:00;96,5
2015-10-31 21:15;88,4
2015-10-31 21:30;93,4
2015-10-31 21:45;95,3
2015-10-31 22:00;91,3
2015-10-31 22:15;91,8
2015-10-31 22:30;91,75
2015-10-31 22:45;84,25
2015-10-31 23:00;83,9
2015-10-31 23:15;82,9
2015-10-31 23:30;82,9
2015-10-31 23:45;81,55
2015-11-01 00:00;81,45
2015-11-01 00:15;82,5
2015-11-01 00:30;82,15
2015-11-01 00:45;80
2015-11-01 01:00;79,25
2015-11-01 01:15;79
2015-11-01 01:30;78,3
2015-11-01 01:45;77,65
2015-11-01 02:00;77,65
2015-11-01 02:15;77,9
2015-11-01 02:30;78,2
2015-11-01 02:45;78,7
2015-11-01 03:00;77,5
2015-11-01 03:15;77,15
2015-11-01 03:30;77,2
2015-11-01 03:45;78,35
2015-11-01 04:00;77,7
2015-11-01 04:15;76,3
2015-11-01 04:30;77,25
2015-11-01 04:45;77,65
2015-11-01 05:00;76,3
2015-11-01 05:15;76,5
2015-11-01 05:30;77,25
2015-11-01 05:45;77,65
2015-11-01 06:00;80,25
2015-11-01 06:15;78,15
2015-11-01 06:30;83,35
2015-11-01 06:45;86,4
2015-11-01 07:00;83,8
2015-11-01 07:15;83,55
2015-11-01 07:30;81,5
2015-11-01 07:45;81,6
2015-11-01 08:00;82,6
2015-11-01 08:15;79,8
2015-11-01 08:30;78,9
2015-11-01 08:45;75,35
2015-11-01 09:00;75,5
2015-11-01 09:15;73,65
2015-11-01 09:30;72,2
2015-11-01 09:45;71,25
2015-11-01 10:00;71,8
2015-11-01 10:15;78,95
2015-11-01 10:30;77,25
2015-11-01 10:45;80,55
2015-11-01 11:00;84,15
2015-11-01 11:15;77,3
2015-11-01 11:30;74,8
2015-11-01 11:45;76,95
2015-11-01 12:00;80,1
2015-11-01 12:15;77
2015-11-01 12:30;82
2015-11-01 12:45;79,8
2015-11-01 13:00;77,65
2015-11-01 13:15;78,4
2015-11-01 13:30;78,05
2015-11-01 13:45;79,1
2015-11-01 14:00;79,3
2015-11-01 14:15;79,4
2015-11-01 14:30;80,1
2015-11-01 14:45;82,85
2015-11-01 15:00;80,15
2015-11-01 15:15;84,75
2015-11-01 15:30;83,2
2015-11-01 15:45;78,3
2015-11-01 16:00;84,2
2015-11-01 16:15;82,75
2015-11-01 16:30;86,55
2015-11-01 16:45;90,3
2015-11-01 17:00;92,95
2015-11-01 17:15;94,5
2015-11-01 17:30;93,6
2015-11-01 17:45;90
2015-11-01 18:00;88,7
2015-11-01 18:15;93,45
2015-11-01 18:30;90,8
2015-11-01 18:45;91,95
2015-11-01 19:00;91
2015-11-01 19:15;91,7
2015-11-01 19:30;90,3
2015-11-01 19:45;89,15
2015-11-01 20:00;90,75
2015-11-01 20:15;88,35
2015-11-01 20:30;88,3
2015-11-01 20:45;88,3
2015-11-01 21:00;88,45
2015-11-01 21:15;88,3
2015-11-01 21:30;88,65
2015-11-01 21:45;95,6
2015-11-01 22:00;91,45
2015-11-01 22:15;89,3
2015-11-01 22:30;91,6
2015-11-01 22:45;91,95
2015-11-01 23:00;90,6
2015-11-01 23:15;83,45
2015-11-01 23:30;82,9
2015-11-01 23:45;81,45

